Tacoma Narrows Airport
KTIW : now visible

Airfield :











YOU CAN JOIN US ON...

 
LOGIN :

Register | Disclaimer

   EN    FR    IT 

 









Legend :    VFR   Marginal VFR   IFR   Intensive IFR   Very Intensive IFR
Visi :
Ceiling :
>= 8 km
>= 3000ft
5 to 8 km
1000 to 3000 ft
1500m to 5 km
500 to 1000 ft
800 to 1500m
200 to 500 ft
< 800m
< 200 ft
Symbols :   Thunderstorms  Fog  Heavy snow  Heavy precipitations  Wind > 20 kt






- Airport Elevation : 294 ft


KTIW - Tacoma Narrows

CURRENT METAR :
  • 131653Z VRB04KT 10SM CLR 22/14 A3004 RMK AO2 SLP168 T02220139

EXPIRED METARs :
  • 131553Z VRB03KT 10SM CLR 20/14 A3004 RMK AO2 SLP169 T02000144
  • 131453Z 00000KT 10SM CLR 17/14 A3004 RMK AO2 SLP170 T01720139 52007
  • 131353Z AUTO 00000KT 10SM CLR 17/14 A3004 RMK AO2 SLP167 T01670139
  • 131253Z AUTO 00000KT 10SM CLR 15/13 A3003 RMK AO2 SLP166 T01500133

TAF N/A
KZSE FIR / North America



MET'MAP, your aeronautical weather chart ! - Copyright ORBIFLY December 2007 - Disclaimer

ORBIFLY MET'MAP TEAM :

Programming & Development : Alexandra Zaïnal
Original concept : Baudouin d'Aumeries
Technical & hardware support : Manuel Goepfert
Assistance : Marc-Olivier Méhu




SOURCES & CREDITS :

   NOAA       Earth
Advisory